This is the latest recevied weather packets stored in our database for station/object WA6GRA. If no packets are shown the sender has not sent any weather packets the latest 10 day(s).
| Time | Temp. | Humidity | Pressure | Rain* | Wind** | Luminosity | Snow |
|---|---|---|---|---|---|---|---|
| 1777922841 | 14.44° C | 69% | 1015.6 hPa | 0 mm | - | 186 W/m² | - |
| 1777922238 | 14.44° C | 70% | 1015.8 hPa | 0 mm | - | 165 W/m² | - |
| 1777921635 | 14.44° C | 71% | 1015.7 hPa | 0 mm | - | 125 W/m² | - |
| 1777921034 | 14.44° C | 71% | 1015.9 hPa | 0 mm | - | 112 W/m² | - |
| 1777920433 | 14.44° C | 71% | 1016 hPa | 0 mm | - | 124 W/m² | - |
| 1777919831 | 14.44° C | 70% | 1016 hPa | 0 mm | - | 141 W/m² | - |
| 1777919226 | 13.89° C | 71% | 1016.1 hPa | 0 mm | - | 117 W/m² | - |
| 1777918627 | 13.89° C | 72% | 1016 hPa | 0 mm | - | 102 W/m² | - |
| 1777918023 | 13.89° C | 72% | 1016.1 hPa | 0 mm | - | 91 W/m² | - |
| 1777917418 | 13.89° C | 72% | 1015.8 hPa | 0 mm | - | 111 W/m² | - |
| 1777916819 | 13.89° C | 73% | 1015.9 hPa | 0 mm | - | 100 W/m² | - |
| 1777916218 | 13.89° C | 72% | 1015.8 hPa | 0 mm | - | 92 W/m² | - |
| 1777915618 | 13.89° C | 74% | 1015.7 hPa | 0 mm | - | 85 W/m² | - |
| 1777915017 | 13.89° C | 75% | 1015.5 hPa | 0 mm | - | 87 W/m² | - |
| 1777914415 | 13.89° C | 74% | 1015.5 hPa | 0 mm | - | 77 W/m² | - |
| 1777913815 | 13.89° C | 74% | 1015.3 hPa | 0 mm | - | 78 W/m² | - |
| 1777913214 | 13.33° C | 75% | 1015.3 hPa | 0 mm | - | 73 W/m² | - |
| 1777912613 | 13.33° C | 76% | 1015.2 hPa | 0 mm | - | 69 W/m² | - |
| 1777912011 | 13.33° C | 75% | 1015.3 hPa | 0 mm | - | 63 W/m² | - |
| 1777911409 | 13.33° C | 76% | 1015.1 hPa | 0 mm | - | 73 W/m² | - |
| 1777910804 | 13.33° C | 76% | 1015.3 hPa | 0 mm | - | 68 W/m² | - |
| 1777910203 | 13.33° C | 77% | 1015 hPa | 0 mm | - | 57 W/m² | - |
| 1777909603 | 12.78° C | 77% | 1015 hPa | 0 mm | - | 59 W/m² | - |
| 1777908998 | 12.78° C | 78% | 1015 hPa | 0 mm | - | 55 W/m² | - |
| 1777908393 | 12.78° C | 78% | 1015.2 hPa | 0 mm | - | 45 W/m² | - |
* Rain latest hour (hover to see other rain measurements)
** Current wind speed in m/s (hover to see current wind gust speed)